Current Version              Previous Version:    01  02  03  04  05  06  07  08  09  10  11  12  13  14  15  16  17  18  19  20  21  22  23  24  25  26  27  28  29  30  
   31  32  33  34  35  36  37  38  39  40  41  42  43  44  45  46  47  48  49  50  51  52  53  54  55  56  57  58  59  60  

[Printable]
649
ASUS44 KLUB 222010
RWRTX
WEST TEXAS WEATHER ROUNDUP
NATIONAL WEATHER SERVICE LUBBOCK TX
300 PM CDT MON SEP 22 2014

NOTE: "FAIR" INDICATES FEW OR NO CLOUDS BELOW 12,000 FEET WITH NO
SIGNIFICANT WEATHER AND/OR OBSTRUCTIONS TO VISIBILITY.

TXZ004-006>008-010-012-014-016-OKZ002-222100-
TEXAS PANHANDLE/OKLAHOMA PANHANDLE

CITY           SKY/WX    TMP DP  RH WIND       PRES   REMARKS
AMARILLO       SUNNY     74  55  51 S18G25    30.27F
BORGER         SUNNY     77  49  37 SE13G21   30.25F
CANADIAN       SUNNY     77  49  37 S8        30.24F
DALHART        MOSUNNY   77  57  50 S20G28    30.26F
DUMAS          SUNNY     76  55  48 SE14G22   30.26F
GUYMON         SUNNY     79  53  40 S18       30.21F
HEREFORD       SUNNY     77  62  60 S14G20    30.28F
PAMPA          SUNNY     76  49  38 S13       30.27F
PERRYTON       MOSUNNY   79  46  31 S16G22    30.24F
$$

TXZ026-029-035-045-048-222100-
SOUTHERN PANHANDLE/SOUTH PLAINS/ROLLING PLAINS

CITY           SKY/WX    TMP DP  RH WIND       PRES   REMARKS
CHILDRESS      SUNNY     80  50  34 SE9       30.24F
SEMINOLE       PTSUNNY   77  62  60 SE10G20   30.25F
LUBBOCK        PTSUNNY   75  62  64 SE13      30.26F
PLAINVIEW      SUNNY     75  62  62 SE9       30.26F
SNYDER         PTSUNNY   78  67  69 NE8       30.22F
$$

TXZ052-054-060>062-072-078-127-140-154-169-222100-
PERMIAN BASIN/CONCHO VALLEY/BIG COUNTRY/EDWARDS PLATEAU

CITY           SKY/WX    TMP DP  RH WIND       PRES   REMARKS
ABILENE        MOSUNNY   88  62  41 N8        30.18F
BIG SPRING     PTSUNNY   84  61  45 E8        30.22F
BRADY          MOSUNNY   84  63  48 NE6       30.16F
BROWNWOOD      MOSUNNY   86  64  48 N3        30.15F
JUNCTION       MOSUNNY   87  58  37 VRB3      30.14F
MIDLAND        PTSUNNY   80  62  54 SE15      30.20F
ODESSA         PTSUNNY   80  60  50 SE17G24   30.21F
SAN ANGELO     SUNNY     89  59  36 E13       30.16F
SONORA         MOSUNNY   84  55  37 VRB7      30.20F
SWEETWATER     CLOUDY    79  65  60 N3        30.23F
WINK           CLOUDY    78  65  63 SE9       30.18F
$$

TXZ055-058-074-075-080-082-222100-
FAR WEST/SOUTHWEST MOUNTAINS/TRANS PECOS

CITY           SKY/WX    TMP DP  RH WIND       PRES   REMARKS
ALPINE         CLOUDY    75  56  51 SE8       30.31F
DRYDEN           N/A     90  57  32 E20G25    30.14F
EL PASO        CLOUDY    73  66  78 N8        30.16F
FORT STOCKTON  PTSUNNY   81  56  42 SE14      30.18F
GUADALUPE PASS FOG       61  61 100 NE26      30.28R VSB 1/4
MARFA          PTSUNNY   73  57  56 E14G22    30.28F
PECOS          PTSUNNY   80  63  55 SE14      30.16F
PRESIDIO       CLOUDY    86  61  43 NE10      30.11F
$$

TXZ014-016-019-021>030-083-222100
TEXAS TECH WEST TEXAS MESONET/TEXAS PANHANDLE/NORTHERN SOUTH PLAINS

CITY           SKY/WX    TMP DP  RH WIND       PRES   REMARKS
ABERNATHY 5ENE   N/A     75  60  61 SE10      30.27F
AMARILLO 9NNE    N/A     77  56  49 S10       30.25F
AMARILLO 7SSE    N/A     75  57  52 SE15      30.28F
AMHERST 1NE      N/A     73  64  73 SE13      30.26F
BOOTLEG 11WNW    N/A     71  61  70 SE12      30.30F
CANADIAN 6E      N/A     78  53  41 S10       30.23F
CAPROCK CYN SP   N/A     76  55  48 SE7       30.26F
CHILDRESS 2NNE   N/A     80  48  32 E8        30.22F
CLARENDON 2WSW   N/A     78  46  32 S12       30.26F
DIMMITT 2NE      N/A     73  60  64 SE12      30.28F
FLOYDADA 2NNE    N/A     73  58  60 E9        30.26F
FRIONA 2NE       N/A     73  62  67 S13       30.29F
GOODLETT 3W      N/A     81  45  28 SE3G13    30.21F
HART 3N          N/A     74  60  61 SE10      30.27F
HEREFORD 2NW     N/A     76  58  54 SE9       30.27F
MCLEAN 1E        N/A     77  45  31 SE10      30.25F
MEMPHIS 1NE      N/A     79  49  34 E7        30.24F
MULESHOE 2SSW    N/A     75  63  66 SE12      30.26F
OLTON 6S         N/A     75  60  59 SE10      30.26F
PALO DURO SP     N/A     74  55  51 SE12      30.28F
PAMPA 2E         N/A     76  51  41 SE13      30.26F
PLAINVIEW 1S     N/A     73  60  63 E10       30.26F
SILVERTON 7ESE   N/A     75  53  47 SE13      30.27F
TULIA 2ENE       N/A     74  57  55 SE12      30.27F
TURKEY 2WSW      N/A     76  56  48 E7        30.24F
UMBARGER 3NNE    N/A     75  58  55 SE14      30.28F
$$

TXZ033>036-039>041-045>048-222100
TEXAS TECH WEST TEXAS MESONET/SOUTH PLAINS

CITY           SKY/WX    TMP DP  RH WIND       PRES   REMARKS
AIKEN 3WSW       N/A     72  60  65 SE7       30.28F
ANTON 6SSW       N/A     72  65  77 SE12      30.26F
BROWNFIELD 2S    N/A     72  64  78 E8        30.25F
DENVR CTY 7WNW   N/A     73  62  68 SE13      30.25F
GAIL 2ESE        N/A     77  67  72 NE9       30.21F
LAMESA 2SE       N/A     79  66  64 E8        30.23F
LEVELLAND 4S     N/A     70  63  79 SE12      30.27F
LUBBOCK 3WNW     N/A     76  63  62 SE9       30.26F
MORTON 1ENE      N/A     69  64  84 SE9       30.27F
ODONNELL 1N      N/A     71  64  79 NE7       30.25F
PLAINS 3N        N/A     73  65  78 E12       30.26F
RALLS 1SE        N/A     74  61  63 E9        30.27F
REESE CENTER     N/A     74  64  69 SE12      30.26F
SEMINOLE 2NNE    N/A     76  63  63 SE12      30.23F
SLATON 2NE       N/A     75  61  61 E7        30.25F
SNYDER 3E        N/A     80  66  63 NE6       30.21F
SUNDOWN 8SW      N/A     70  64  82 E10       30.27F
TAHOKA 3NNE      N/A     73  63  72 SE7       30.25F
WOLFFORTH 6SSW   N/A     73  65  74 SE10      30.27F
$$

TXZ031-032-036>038-042>044-222100-
TEXAS TECH WEST TEXAS MESONET/ROLLING PLAINS

CITY           SKY/WX    TMP DP  RH WIND       PRES   REMARKS
ASPERMONT 3NE    N/A     81  59  48 N6        30.20F
FLUVANNA 3WNW    N/A     76  65  67 E7        30.22F
GRAHAM 5SSW      N/A     74  65  73 E6        30.24F
GUTHRIE 10WSW    N/A     79  55  43 E8        30.21F
HASKELL 1NW      N/A     82  56  41 NE6       30.18F
JAYTON 1SSE      N/A     78  58  50 E6        30.22F
KNOX CITY 3NW    N/A     82  53  35 NE7       30.19F
LK A HENRY 1NW   N/A     80  62  54 NE10      30.21F
NORTHFIELD 1S    N/A     79  52  38 SE7       30.23F
ODELL 4ENE       N/A     81  45  27 NE8       30.21F
PADUCAH 10SW     N/A     78  51  38 E8        30.22F
POST 1NE         N/A     78  61  55 NE8       30.23F
RRING SPRGS 3N   N/A     74  56  54 E8        30.25F
SEYMOUR 3NW      N/A     84  45  25 NE3       30.18F
SPUR 1W          N/A     76  57  50 E6        30.23F
WEINERT 2NNE     N/A     83  58  42 N3        30.18F
WHITE RVR 6NE    N/A     77  61  58 E8        30.24F
$$

TXZ052-054-060>062-072-078-127-140-154-169-222100-
TEXAS TECH WEST TEXAS MESONET/PERMIAN BASIN/
CONCHO VALLEY/BIG COUNTRY/EDWARDS PLATEAU

CITY           SKY/WX    TMP DP  RH WIND       PRES   REMARKS
COYANOSA 2N      N/A     83  62  49 E14       30.16F
JUNCTION 1SSW    N/A     87  60  39 NE10      30.14F
MERTZON 3NNE     N/A     87  60  40 SE7       30.17F
SAN ANGELO 7NW   N/A     87  60  39 E12       30.17F
STRLNG CT 4WSW   N/A     83  61  46 E12       30.18F
ST LAWRNCE 5SW   N/A     82  58  43 SE13      30.19F
SWEETWATR 11SW   N/A     81  69  67 NE9       30.21F
WALL 1E          N/A     84  64  50 NE6       30.17F
$$

TXZ055-058-074-075-080-082-222100-
TEXAS TECH WEST TEXAS MESONET/FAR WEST/SOUTHWEST MOUNTAINS/TRANS PECOS

CITY           SKY/WX    TMP DP  RH WIND       PRES   REMARKS
PRSMN GAP BBNP   N/A     82  62  50 NE10      30.14F
GUADLPE MTN NP   N/A     59  58  96 NE5       30.33F
$$